This is the latest recevied weather packets stored in our database for station/object DL6MAA-11. If no packets are shown the sender has not sent any weather packets the latest 10 day(s).
| Time | Temp. | Humidity | Pressure | Rain* | Wind** | Luminosity | Snow |
|---|---|---|---|---|---|---|---|
| 1777478538 | 17.22° C | 34% | 1017.2 hPa | 0 mm | - | 243 W/m² | - |
| 1777478236 | 17.22° C | 35% | 1017.1 hPa | 0 mm | - | 251 W/m² | - |
| 1777477636 | 17.22° C | 36% | 1017.1 hPa | 0 mm | - | 274 W/m² | - |
| 1777477035 | 17.22° C | 34% | 1017 hPa | 0 mm | - | 288 W/m² | - |
| 1777476435 | 17.78° C | 35% | 1017.9 hPa | 0 mm | - | 308 W/m² | - |
| 1777475539 | 17.78° C | 35% | 1017.7 hPa | 0 mm | - | 334 W/m² | - |
| 1777475248 | 17.78° C | 35% | 1017.7 hPa | 0 mm | - | 339 W/m² | - |
| 1777474048 | 17.78° C | 35% | 1017.8 hPa | 0 mm | - | 373 W/m² | - |
| 1777473439 | 17.22° C | 35% | 1016.9 hPa | 0 mm | - | 394 W/m² | - |
| 1777473146 | 17.78° C | 34% | 1016.9 hPa | 0 mm | - | 399 W/m² | - |
| 1777472848 | 17.78° C | 36% | 1017 hPa | 0 mm | - | 408 W/m² | - |
| 1777472551 | 17.78° C | 35% | 1017 hPa | 0 mm | - | 415 W/m² | - |
| 1777472240 | 17.22° C | 35% | 1017 hPa | 0 mm | - | 417 W/m² | - |
| 1777471940 | 17.78° C | 36% | 1017.8 hPa | 0 mm | - | 418 W/m² | - |
| 1777471640 | 17.78° C | 35% | 1017.8 hPa | 0 mm | - | 425 W/m² | - |
| 1777471342 | 17.78° C | 35% | 1017.8 hPa | 0 mm | - | 436 W/m² | - |
| 1777471050 | 17.78° C | 36% | 1017.8 hPa | 0 mm | - | 438 W/m² | - |
| 1777469842 | 17.22° C | 35% | 1017.9 hPa | 0 mm | - | 466 W/m² | - |
| 1777469544 | 17.22° C | 36% | 1017.9 hPa | 0 mm | - | 468 W/m² | - |
| 1777469251 | 17.22° C | 37% | 1017.9 hPa | 0 mm | - | 478 W/m² | - |
| 1777468952 | 17.22° C | 37% | 1017.9 hPa | 0 mm | - | 485 W/m² | - |
| 1777468640 | 17.22° C | 35% | 1017.9 hPa | 0 mm | - | 492 W/m² | - |
| 1777468348 | 17.22° C | 35% | 1017.9 hPa | 0 mm | - | 503 W/m² | - |
| 1777468037 | 17.22° C | 37% | 1017.9 hPa | 0 mm | - | 504 W/m² | - |
| 1777467753 | 17.22° C | 38% | 1017.9 hPa | 0 mm | - | 517 W/m² | - |
* Rain since midnight (hover to see other rain measurements)
** Current wind speed in m/s (hover to see current wind gust speed)